Cloud_Cover
27 17 36 23 86 67 30 45 95 100 97 100 99 62 48 74 71 55 71 18 6 6 100 100 100 100 100 98 76 10 86 78 95 93 64 53 13 90 100 100 100 100 100
87 77 68 91 84 40 88 65 56 90 88 100 100 100 100 66 100 96 92 98 94 100 100 100 100 76 100 100 100 99 5 60 13 89 95 72 100 98 49 88 100 100 100
0 8 3 3 0 1 76 100 100 100 100 100 98 96 81 64 71 100 98 100 100 100 100 100 100 100 63 100 100 100 100 30 95 78 59 32 59 100 89 99 100 100 100
2 57 70 44 0 32 79 100 81 95 100 100 100 80 100 100 99 90 100 100 100 64 57 100 91 90 100 92 100 100 98 2 41 11 76 6 86 95 100 97 100 99 100
20 87 100 100 70 92 94 82 83 85 100 100 100 100 100 100 100 100 100 100 100 67 88 100 100 82 100 100 100 73 90 36 100 100 15 10 6 90 78 100 99 100 100
29 89 100 100 100 77 42 98 89 100 100 100 100 100 95 100 100 100 100 100 100 100 100 99 100 100 68 41 60 21 100 100 100 32 100 34 25 90 100 100 97 100 100
63 98 100 100 100 100 100 100 100 100 100 97 100 100 97 100 100 100 100 100 100 100 100 100 100 92 37 46 13 6 22 11 55 47 90 56 73 11 98 100 94 28 94
94 98 95 76 88 79 76 48 24 48 100 81 100 100 100 91 100 100 100 100 100 100 100 100 100 100 96 95 71 14 6 12 55 50 100 100 58 2 3 74 98 100 100
37 56 46 34 11 0 0 0 0 0 0 37 26 40 100 100 100 100 100 100 100 100 100 100 100 100 87 42 99 44 73 96 14 4 5 10 52 12 100 69 14 11 30
54 14 1 0 0 0 0 0 0 0 0 0 0 76 98 99 100 100 100 100 100 100 100 100 100 100 100 100 11 1 3 1 10 54 5 15 96 18 12 0 3 1 4
0 0 0 0 0 0 0 0 0 0 0 0 0 0 0 2 60 100 100 100 100 100 100 100 100 100 100 100 100 97 75 95 99 67 23 7 65 12 66 27 1 0 0
0 0 0 0 0 0 0 0 0 0 0 0 0 0 0 0 0 0 0 17 77 100 100 100 100 100 100 100 100 100 80 100 100 98 91 7 0 0 0 66 51 0 1
0 0 0 0 0 0 0 0 0 1 4 0 0 0 0 0 0 0 0 0 1 18 24 58 81 40 58 86 88 86 32 2 0 0 0 0 0 0 12 100 18 96 23
0 2 5 7 10 12 14 28 71 20 8 5 5 5 5 2 0 0 0 0 24 76 95 100 30 2 4 17 27 13 10 35 35 41 32 0 0 0 99 55 43 100 99
0 4 22 76 99 100 100 100 100 90 14 5 5 4 0 1 0 0 1 19 48 95 100 100 91 91 93 98 97 82 57 80 98 100 100 100 64 49 86 97 12 3 17
5 5 5 3 0 1 18 11 5 5 5 5 5 5 5 5 7 19 5 39 71 100 100 100 100 100 100 100 100 100 94 90 12 100 100 57 76 99 25 86 57 99 94
2 5 5 5 5 5 21 46 94 98 97 100 63 5 5 5 5 5 21 78 11 11 99 100 100 100 100 100 100 100 100 100 31 99 50 100 99 100 100 51 25 30 2
0 0 4 5 49 56 80 91 84 82 74 99 52 10 4 1 2 0 10 9 61 100 100 100 100 100 100 100 100 100 100 100 100 74 100 61 100 20 100 99 34 82 95
0 2 4 0 0 0 3 5 5 5 5 5 12 8 42 13 5 22 58 100 100 100 100 100 100 100 100 100 100 100 100 100 100 100 100 92 99 68 78 100 92 100 100
5 5 5 5 3 5 5 4 5 5 31 27 52 71 58 55 83 74 96 100 100 100 100 100 100 100 100 100 100 100 100 100 100 100 100 54 91 100 74 89 97 97 27
5 5 5 4 5 2 5 5 7 75 66 57 92 98 100 97 100 100 100 100 100 100 100 100 100 100 100 100 100 100 100 100 100 100 100 100 100 100 100 95 99 41 97
5 5 5 4 2 5 5 6 42 91 60 63 49 100 100 100 100 100 100 100 100 100 100 100 100 100 100 100 100 100 100 100 100 100 100 100 100 100 84 79 40 68 9
5 5 5 3 5 4 13 49 71 55 80 98 100 71 99 100 100 100 100 100 100 100 100 100 100 100 100 100 100 100 100 100 100 100 100 100 100 100 100 100 100 74 64
5 0 0 5 22 7 11 23 38 87 100 100 100 92 56 100 99 100 100 100 100 100 100 100 100 100 100 100 100 100 100 100 100 100 100 100 100 100 100 100 100 100 72
5 0 2 6 6 5 6 23 91 100 83 95 36 99 100 100 100 100 100 100 100 100 100 100 100 100 100 100 100 100 100 100 100 100 100 100 100 100 100 100 100 100 98
0 0 0 4 5 5 6 8 36 76 77 66 88 100 100 100 100 100 100 100 100 100 100 100 100 100 100 100 100 100 100 100 100 100 100 100 100 100 100 100 100 100 100